When you browse on this site, cookies collect data to enhance your experience and personalize the content and advertising you see.
Visit our Privacy Policy to learn more. By continuing to use the site, you agree to this use of cookies and data.

Météo par heure à Wubao

Ce jour, 6 Juillet, Lundi

Heure Température Précipitation Vent Pression Humidité
00:00 +29°C° 0 mm 7 m/s 754 mmHg 86%
01:00 +29°C° 0 mm 7 m/s 754 mmHg 87%
02:00 +29°C° 0 mm 7 m/s 754 mmHg 87%
03:00 +29°C° 0 mm 7 m/s 754 mmHg 88%
04:00 +29°C° 0 mm 7 m/s 754 mmHg 88%
05:00 +28°C° 0 mm 7 m/s 754 mmHg 89%
06:00 +29°C° 0 mm 7 m/s 754 mmHg 83%
07:00 +30°C° 0 mm 7 m/s 754 mmHg 78%
08:00 +33°C° 0 mm 6 m/s 755 mmHg 72%
09:00 +34°C° 0 mm 6 m/s 755 mmHg 68%
10:00 +35°C° 0 mm 7 m/s 755 mmHg 64%
11:00 +36°C° 0 mm 7 m/s 755 mmHg 60%
12:00 +37°C° 0 mm 8 m/s 755 mmHg 61%
13:00 +35°C° 0 mm 8 m/s 754 mmHg 62%
14:00 +35°C° 0 mm 9 m/s 754 mmHg 63%
15:00 +35°C° 0 mm 9 m/s 754 mmHg 65%
16:00 +34°C° 0 mm 9 m/s 754 mmHg 67%
17:00 +34°C° 0 mm 8 m/s 754 mmHg 68%
18:00 +33°C° 0 mm 8 m/s 754 mmHg 72%
19:00 +32°C° 0 mm 7 m/s 755 mmHg 75%
20:00 +30°C° 0 mm 7 m/s 755 mmHg 78%
21:00 +30°C° 0 mm 7 m/s 755 mmHg 80%
22:00 +30°C° 0 mm 7 m/s 756 mmHg 81%
23:00 +30°C° 0 mm 6 m/s 756 mmHg 83%

Demain, 7 Juillet, Mardi

Heure Température Précipitation Vent Pression Humidité
00:00 +29°C° 0 mm 6 m/s 756 mmHg 84%
01:00 +29°C° 0 mm 6 m/s 756 mmHg 85%
02:00 +29°C° 0 mm 6 m/s 756 mmHg 86%
03:00 +29°C° 0 mm 6 m/s 756 mmHg 86%
04:00 +29°C° 0 mm 6 m/s 756 mmHg 87%
05:00 +29°C° 0 mm 6 m/s 756 mmHg 87%
06:00 +29°C° 0 mm 6 m/s 756 mmHg 83%
07:00 +30°C° 0 mm 6 m/s 756 mmHg 78%
08:00 +32°C° 0 mm 6 m/s 757 mmHg 74%
09:00 +33°C° 0 mm 6 m/s 757 mmHg 69%
10:00 +35°C° 0 mm 7 m/s 757 mmHg 65%
11:00 +36°C° 0 mm 7 m/s 756 mmHg 60%
12:00 +37°C° 0 mm 8 m/s 756 mmHg 61%
13:00 +37°C° 0 mm 8 m/s 756 mmHg 62%
14:00 +37°C° 0 mm 8 m/s 755 mmHg 63%
15:00 +35°C° 0 mm 8 m/s 755 mmHg 66%
16:00 +35°C° 0 mm 9 m/s 755 mmHg 68%
17:00 +34°C° 0 mm 9 m/s 755 mmHg 71%
18:00 +33°C° 0 mm 8 m/s 755 mmHg 75%
19:00 +32°C° 0 mm 8 m/s 755 mmHg 79%
20:00 +30°C° 0 mm 7 m/s 756 mmHg 83%
21:00 +30°C° 0 mm 7 m/s 756 mmHg 84%
22:00 +30°C° 0 mm 7 m/s 756 mmHg 85%
23:00 +30°C° 0 mm 6 m/s 756 mmHg 86%

Après-demain, 8 Juillet, Mercredi

Heure Température Précipitation Vent Pression Humidité
00:00 +30°C° 0 mm 6 m/s 756 mmHg 87%
01:00 +29°C° 0 mm 6 m/s 755 mmHg 88%
02:00 +29°C° 0 mm 7 m/s 755 mmHg 89%
03:00 +29°C° 0 mm 6 m/s 755 mmHg 89%
04:00 +29°C° 0 mm 6 m/s 755 mmHg 90%
05:00 +29°C° 0 mm 6 m/s 755 mmHg 90%
06:00 +30°C° 0 mm 6 m/s 755 mmHg 85%
07:00 +30°C° 0 mm 6 m/s 755 mmHg 81%
08:00 +32°C° 0 mm 6 m/s 755 mmHg 76%
09:00 +34°C° 0 mm 6 m/s 755 mmHg 70%
10:00 +35°C° 0 mm 7 m/s 755 mmHg 64%
11:00 +36°C° 0 mm 7 m/s 755 mmHg 58%
12:00 +36°C° 0 mm 7 m/s 754 mmHg 59%
13:00 +37°C° 0 mm 8 m/s 754 mmHg 60%
14:00 +37°C° 0 mm 8 m/s 753 mmHg 61%
15:00 +37°C° 0 mm 9 m/s 753 mmHg 65%
16:00 +35°C° 0 mm 9 m/s 753 mmHg 68%
17:00 +34°C° 0 mm 9 m/s 752 mmHg 72%
18:00 +33°C° 0 mm 9 m/s 753 mmHg 74%
19:00 +32°C° 0 mm 8 m/s 753 mmHg 77%
20:00 +32°C° 0 mm 8 m/s 754 mmHg 79%
21:00 +32°C° 0 mm 8 m/s 754 mmHg 79%
22:00 +32°C° 0 mm 7 m/s 754 mmHg 80%
23:00 +30°C° 0 mm 7 m/s 754 mmHg 80%

9 Juillet, Jeudi

Heure Température Précipitation Vent Pression Humidité
00:00 +30°C° 0.1 mm 7 m/s 753 mmHg 81%
01:00 +30°C° 0.1 mm 7 m/s 753 mmHg 81%
02:00 +30°C° 0.1 mm 7 m/s 753 mmHg 82%
03:00 +30°C° 0.1 mm 7 m/s 753 mmHg 82%
04:00 +30°C° 0.1 mm 7 m/s 753 mmHg 82%
05:00 +30°C° 0.1 mm 7 m/s 752 mmHg 82%
06:00 +30°C° 0.4 mm 7 m/s 753 mmHg 81%
07:00 +30°C° 0.4 mm 6 m/s 753 mmHg 81%
08:00 +30°C° 0.4 mm 5 m/s 754 mmHg 80%
09:00 +32°C° 0.9 mm 5 m/s 754 mmHg 79%
10:00 +32°C° 0.9 mm 5 m/s 754 mmHg 78%
11:00 +32°C° 0.9 mm 5 m/s 754 mmHg 77%
12:00 +32°C° 1 mm 6 m/s 754 mmHg 77%
13:00 +32°C° 1 mm 6 m/s 753 mmHg 77%
14:00 +32°C° 1 mm 7 m/s 753 mmHg 78%
15:00 +32°C° 0.2 mm 7 m/s 753 mmHg 79%
16:00 +32°C° 0.2 mm 7 m/s 753 mmHg 81%
17:00 +31°C° 0.2 mm 8 m/s 753 mmHg 82%
18:00 +30°C° 0.1 mm 7 m/s 753 mmHg 83%
19:00 +30°C° 0.1 mm 7 m/s 753 mmHg 84%
20:00 +30°C° 0.1 mm 7 m/s 754 mmHg 85%
21:00 +30°C° 0.2 mm 7 m/s 754 mmHg 85%
22:00 +31°C° 0.2 mm 8 m/s 754 mmHg 86%
23:00 +31°C° 0.2 mm 8 m/s 754 mmHg 86%

10 Juillet, Vendredi

Heure Température Précipitation Vent Pression Humidité
00:00 +30°C° 0 mm 7 m/s 754 mmHg 85%
01:00 +30°C° 0 mm 7 m/s 754 mmHg 85%
02:00 +30°C° 0 mm 7 m/s 754 mmHg 84%
03:00 +29°C° 0 mm 6 m/s 754 mmHg 84%
04:00 +29°C° 0 mm 6 m/s 754 mmHg 84%
05:00 +29°C° 0 mm 6 m/s 754 mmHg 84%
06:00 +30°C° 0 mm 6 m/s 754 mmHg 81%
07:00 +32°C° 0 mm 6 m/s 754 mmHg 78%
08:00 +32°C° 0 mm 5 m/s 755 mmHg 75%
09:00 +33°C° 0 mm 6 m/s 755 mmHg 72%
10:00 +33°C° 0 mm 6 m/s 755 mmHg 69%
11:00 +34°C° 0 mm 7 m/s 755 mmHg 66%
12:00 +34°C° 0 mm 7 m/s 755 mmHg 66%
13:00 +34°C° 0 mm 8 m/s 754 mmHg 66%
14:00 +34°C° 0 mm 8 m/s 754 mmHg 66%
15:00 +34°C° 0 mm 8 m/s 754 mmHg 67%
16:00 +34°C° 0 mm 8 m/s 754 mmHg 69%
17:00 +33°C° 0 mm 8 m/s 753 mmHg 70%
18:00 +33°C° 0 mm 8 m/s 754 mmHg 74%
19:00 +32°C° 0 mm 8 m/s 754 mmHg 77%
20:00 +30°C° 0 mm 7 m/s 754 mmHg 81%
21:00 +30°C° 0 mm 7 m/s 755 mmHg 82%
22:00 +30°C° 0 mm 7 m/s 755 mmHg 83%
23:00 +30°C° 0 mm 7 m/s 755 mmHg 84%

11 Juillet, Samedi

Heure Température Précipitation Vent Pression Humidité
00:00 +30°C° 0 mm 7 m/s 755 mmHg 85%
01:00 +29°C° 0 mm 7 m/s 754 mmHg 86%
02:00 +29°C° 0 mm 6 m/s 754 mmHg 87%
03:00 +29°C° 0.1 mm 6 m/s 754 mmHg 88%
04:00 +29°C° 0.1 mm 6 m/s 754 mmHg 88%
05:00 +29°C° 0.1 mm 5 m/s 754 mmHg 88%
06:00 +30°C° 0.2 mm 6 m/s 755 mmHg 84%
07:00 +30°C° 0.2 mm 6 m/s 755 mmHg 81%
08:00 +32°C° 0.2 mm 6 m/s 755 mmHg 77%
09:00 +33°C° 0 mm 6 m/s 755 mmHg 73%
10:00 +34°C° 0 mm 6 m/s 755 mmHg 68%
11:00 +35°C° 0 mm 7 m/s 755 mmHg 63%
12:00 +35°C° 0 mm 7 m/s 755 mmHg 62%
13:00 +37°C° 0 mm 8 m/s 754 mmHg 62%
14:00 +37°C° 0 mm 8 m/s 754 mmHg 61%
15:00 +35°C° 0 mm 8 m/s 754 mmHg 64%
16:00 +34°C° 0 mm 8 m/s 754 mmHg 67%
17:00 +34°C° 0 mm 8 m/s 753 mmHg 70%
18:00 +33°C° 0 mm 8 m/s 754 mmHg 74%
19:00 +32°C° 0 mm 7 m/s 754 mmHg 78%
20:00 +30°C° 0 mm 7 m/s 755 mmHg 82%
21:00 +30°C° 0 mm 7 m/s 755 mmHg 83%
22:00 +30°C° 0 mm 7 m/s 755 mmHg 84%
23:00 +29°C° 0 mm 7 m/s 756 mmHg 85%
Voir plus